Hourly Data Report for October 18, 2015

All times are specified in Local Standard Time (LST). Add 1 hour to adjust for Daylight Saving Time where and when it is observed.

PENTICTON A
BRITISH COLUMBIA

49°27'45.000" N
119°36'08.000" W
344.40 m
1126146
71889
YYF

Download Data

Hourly Data (October 2015)
Hourly Data Report for October 18, 2015
Temp Definition
°C
Dew Point Temp Definition
°C
Rel Hum Definition
%
Wind Dir Definition
10's deg

Wind Spd Definition
km/h
Visibility Definition
km
Stn Press Definition
kPa
Hmdx Definition


Wind Chill Definition


Weather Definition


TIME
00:00 Legend Double Dagger 10.7 5.1 68 35 8 24.1 97.00     LegendNANA
01:00 Legend Double Dagger 10.4 6.9 79 1 4 24.1 97.04     Cloudy
02:00 Legend Double Dagger 10.6 7.5 81 1 8 24.1 97.08     LegendNANA
03:00 Legend Double Dagger 10.9 6.7 75 31 9 24.1 97.11     LegendNANA
04:00 Legend Double Dagger 11.0 7.2 77 1 9 24.1 97.12     Cloudy
05:00 Legend Double Dagger 10.1 6.1 76 36 9 24.1 97.14     LegendNANA
06:00 Legend Double Dagger 9.7 6.1 78 2 9 24.1 97.19     LegendNANA
07:00
08:00 Legend Double Dagger 12.4 7.5 72 36 2 24.1 97.28     LegendNANA
09:00 Legend Double Dagger 14.1 8.1 67 16 7 24.1 97.33     LegendNANA
10:00 Legend Double Dagger 14.6 7.7 63 14 3 24.1 97.34     Cloudy
11:00 Legend Double Dagger 15.8 7.4 57 14 5 24.1 97.32     LegendNANA
12:00 Legend Double Dagger 14.9 8.2 64 36 11 24.1 97.34     LegendNANA
13:00 Legend Double Dagger 14.5 8.7 68 4 3 24.1 97.31     Cloudy
14:00 Legend Double Dagger 14.7 8.3 65 17 8 24.1 97.30     Rain
15:00 Legend Double Dagger 13.7 8.6 71 18 22 24.1 97.30     Rain
16:00 Legend Double Dagger 12.6 9.8 83 18 22 24.1 97.33     Rain
17:00 Legend Double Dagger 12.4 10.3 87 16 14 24.1 97.32     Rain
18:00 Legend Double Dagger 12.3 10.6 89 32 5 24.1 97.33     Rain
19:00 Legend Double Dagger 11.6 11.0 96 2 9 24.1 97.35     Cloudy
20:00 Legend Double Dagger 11.4 10.8 96 1 4 24.1 97.35     LegendNANA
21:00 Legend Double Dagger 11.3 10.9 97 36 4 24.1 97.32     Rain
22:00 Legend Double Dagger 11.2 10.9 98 0 1 24.1 97.31     Rain
23:00 Legend Double Dagger 11.1 10.8 98 31 3 24.1 97.28     LegendNANA

Notes on Data Quality.

Legend

  • E = Estimated
  • M = Missing
  • NA = Not Available
  • ‡ = Partner data that is not subject to review by the National Climate Archives
Date modified: